sat.trackr.live / text

‹ back to catalog

STARLINK-37043

NORAD 68246 · 2026-054Q

PAYLOAD ACTIVE UNKNOWN

§ Identity

Operator
Country
US
Launch date
2026-03-17
Launch site
AFETR
Launch vehicle
Mass (kg)
RCS (m²)

Purposes: comms

External: N2YO · Heavens-Above · Gunter

§ Orbital elements

Epoch: 2026-05-24T15:32:22.259040Z

Period
93.37 min
Inclination
53.1586°
Eccentricity
0.0000992
Mean motion
15.42172256 rev/d
Perigee alt
439.0 km
Apogee alt
440.4 km
Semi-major
6,817.8 km
B*
5.4268e-4
RAAN
301.7835°
Arg perigee
69.5275°
Mean anomaly
290.5837°
Rev number
1,065

§ Raw data

STARLINK-370431 68246U 26054Q   26144.64747985  .00023285  00000+0  54268-3 0  99972 68246  53.1586 301.7835 0000992  69.5275 290.5837 15.42172256 10658

JSON: /api/v1/satellites/68246 · /tle

For live sub-satellite position, see the globe view (requires WebGL).

§ Visibility from observer

Set your observer location to see the next 7 days of passes ≥ 10°. The values pass through the URL so the page stays shareable.

No JS? Fill the form by hand. The geolocation button needs JavaScript.